Showing default

GLOBAL-4, 44499

Orbit data source: Space-Track

GLOBAL-4, 44499 is a payload satellite owned by BlackSky Global (US) in LEO that was launched on Mon, 19 Aug 2019 UTC via an ELECTRON launch vehicle from the Rocket Lab Launch Complex (RLLC). Payload-class satellites include a variety of spacecraft equipped with specific instruments for various scientific and technological missions. These include communications satellites like Starlink; space stations such as the ISS; scientific satellites like the Hubble; Earth observation satellites from companies like Planet Labs, Umbra, and HawkEye 360; GPS; miniature CubeSats for education and research; and military/defense satellites.

Loading next visibility...
Identifier
44499, 2019-054E
Orbit
LEO
Country
Flag of USUS
Related business
Manufacturer
LeoStella
Mission
Operational Commercial Imaging
Bus & Motor
BSKY, Unknown motor
Mass
55 kg wet, ~50 kg dry
Launch date (UTC)
2019-08-19 (6 years ago)
Launch vehicle
ELECTRON
Launch site
Rocket Lab Launch Complex (RLLC)
Object type
Payload
Rocket body
Debris
Shape & HBR
Box, 1.0 m
Radar Cross Section
0.625 m², Medium (>0.1 m² and < 1m²)

Expand to show TLE details & history
Last TLE update: 16 hours ago

TLE from 16 hours ago
0 GLOBAL-4
1 44499U 19054E   25309.72825729  .00033732  00000-0  68527-3 0  9999
2 44499  45.0105  67.0966 0008400 292.2572  67.7427 15.45760920345589
Epoch: 2025-11-05T17:28Z
TLE epoch observation values (Epoch: 2025-11-05T17:28:41.429Z)
Latitude
-0.00004°
Longitude
119.72718°
Altitude
426.982 km
Speed
7.658 km/s
True Right ascension
04h 28m 23s
True Declination
0° 00' 00"
Sunlit
Object was in full shadow at epoch
Visualization orbit readout
Latitude
Unknown
Longitude
Unknown
Altitude
Unknown
Speed
Unknown
Apparent Right ascension
Unknown
Apparent Declination
Unknown
Sunlit
N/A
Visualization observer readout
Local Sidereal Time
05:07:17
Azimuth
Unknown
Elevation
Unknown
Doppler factor
Unknown
Orbital elements
Apogee altitude
436.483 km
Perigee altitude
425.044 km
Semi-major axis
6,808.9 km
Eccentricity
0.00084
Inclination
45.0105°
RAAN
67.0966°
Arg. of periapsis
292.2572°
True anomaly
67.83182°
Mean anomaly
67.7427°
Eccentric anomaly
67.78726°
Mean motion
3.86303 °/min
Orbital period
93.19 mins
BSTAR
0.00068527
Loading maneuver chart data...
Computing Atmospheric mass density...
Loading historical data...
Loading historical data...
Loading historical data...
Loading historical data...
Loading historical data...
Loading historical data...
Loading historical data...

Documentation

Showing up to 5 results
|